CW4132 Weather Reports


Display with metric or nautical units.
time (UTC)temp
F
wind
direction
speed
MPH
gust
MPH
rain 1hr
in
rain 24hr
in
rain mn
in
humidity
%
barometer
mb
20200404224536 66 61 0.0 0.0 0.00 0.00 0.00 41 1015.6
20200404223028 67 63 0.0 0.0 0.00 0.00 0.00 43 1015.5
20200404221556 68 63 0.0 0.0 0.00 0.00 0.00 41 1015.5
20200404220022 69 115 0.0 0.0 0.00 0.00 0.00 39 1015.3
20200404214637 69 115 0.0 0.0 0.00 0.00 0.00 36 1015.4
20200404213058 70 120 0.0 0.0 0.00 0.00 0.00 36 1015.3
20200404211605 69 132 0.0 1.0 0.00 0.00 0.00 35 1015.1
20200404210044 69 74 0.0 1.0 0.00 0.00 0.00 34 1015.1
20200404204727 69 165 0.0 1.0 0.00 0.00 0.00 38 1015.2
20200404204520 69 165 0.0 1.0 0.00 0.00 0.00 36 1015.1
20200404203119 71 92 0.0 0.0 0.00 0.00 0.00 37 1015.0
20200404201656 69 111 0.0 3.0 0.00 0.00 0.00 40 1015.1
20200404200020 69 86 0.0 2.0 0.00 0.00 0.00 37 1015.1
20200404194546 70 78 0.0 3.0 0.00 0.00 0.00 37 1015.0
20200404193104 70 84 0.0 1.0 0.00 0.00 0.00 38 1015.1
20200404191520 70 89 0.0 1.0 0.00 0.00 0.00 34 1015.2
20200404190136 70 87 0.0 1.0 0.00 0.00 0.00 32 1015.4
20200404184505 70 254 0.0 4.0 0.00 0.00 0.00 34 1015.8
20200404183102 68 244 0.0 4.0 0.00 0.00 0.00 34 1015.9
20200404181555 68 195 0.0 0.0 0.00 0.00 0.00 37 1016.0
20200404180008 67 107 0.0 0.0 0.00 0.00 0.00 36 1016.3
20200404174625 68 173 0.0 2.0 0.00 0.00 0.00 39 1016.5
20200404173207 67 134 0.0 5.0 0.00 0.00 0.00 40 1016.6
20200404171518 67 101 0.0 0.0 0.00 0.00 0.00 37 1016.8
20200404170044 66 272 0.0 3.0 0.00 0.00 0.00 40 1016.8
20200404164737 65 141 0.0 1.0 0.00 0.00 0.00 41 1017.1
20200404163014 65 250 0.0 1.0 0.00 0.00 0.00 37 1017.2
20200404161548 64 311 0.0 0.0 0.00 0.00 0.00 44 1017.2
20200404160126 63 260 2.0 8.0 0.00 0.00 0.00 37 1017.4
20200404154536 63 81 0.0 1.0 0.00 0.00 0.00 43 1017.4
20200404153107 62 252 0.0 0.0 0.00 0.00 0.00 46 1017.7
20200404151845 60 254 0.0 1.0 0.00 0.00 0.00 46 1017.8
20200404150025 60 255 0.0 0.0 0.00 0.00 0.00 48 1017.8
20200404144542 59 301 0.0 1.0 0.00 0.00 0.00 54 1017.9
20200404143032 59 91 0.0 1.0 0.00 0.00 0.00 52 1017.9
20200404141604 57 258 0.0 0.0 0.00 0.00 0.00 57 1017.7
20200404140132 56 88 0.0 1.0 0.00 0.00 0.00 56 1017.6
20200404134540 56 98 0.0 7.0 0.00 0.00 0.00 57 1017.3
20200404133200 55 59 0.0 5.0 0.00 0.00 0.00 58 1017.3
20200404131613 53 56 0.0 0.0 0.00 0.00 0.00 66 1017.2
20200404130016 50 55 0.0 0.0 0.00 0.00 0.00 71 1017.1
20200404124530 48 202 0.0 0.0 0.00 0.00 0.00 72 1016.9
20200404123149 46 223 0.0 0.0 0.00 0.00 0.00 74 1016.9
20200404121517 44 223 0.0 0.0 0.00 0.00 0.00 79 1016.5
20200404120050 43 223 0.0 0.0 0.00 0.00 0.00 81 1016.3
20200404114657 42 223 0.0 0.0 0.00 0.00 0.00 79 1016.1
20200404113040 42 223 0.0 0.0 0.00 0.00 0.00 78 1015.7
20200404111609 41 223 0.0 0.0 0.00 0.00 0.00 73 1015.3
20200404110212 41 223 0.0 0.0 0.00 0.00 0.00 73 1015.1
20200404104552 42 223 0.0 0.0 0.00 0.00 0.00 72 1015.0
20200404103102 42 223 0.0 0.0 0.00 0.00 0.00 70 1014.9
20200404101604 42 223 0.0 0.0 0.00 0.00 0.00 69 1014.9
20200404100029 42 223 0.0 0.0 0.00 0.00 0.00 70 1014.9
20200404094623 42 223 0.0 0.0 0.00 0.00 0.00 68 1014.6
20200404093136 43 223 0.0 0.0 0.00 0.00 0.00 70 1014.7
20200404091541 44 223 0.0 0.0 0.00 0.00 0.00 70 1014.8
20200404090113 44 223 0.0 0.0 0.00 0.00 0.00 70 1014.7
20200404084643 44 223 0.0 0.0 0.00 0.00 0.00 65 1014.6
20200404083032 45 223 0.0 0.0 0.00 0.00 0.00 67 1014.4
20200404081600 44 223 0.0 0.0 0.00 0.00 0.00 64 1014.2
20200404080152 45 223 0.0 0.0 0.00 0.00 0.00 64 1014.2
20200404080008 45 223 0.0 0.0 0.00 0.00 0.00 64 1014.2
20200404074545 45 223 0.0 0.0 0.00 0.00 0.00 61 1014.3
20200404073207 46 223 0.0 0.0 0.00 0.00 0.00 60 1014.2
20200404071619 46 223 0.0 0.0 0.00 0.00 0.00 56 1014.2
20200404071514 46 223 0.0 0.0 0.00 0.00 0.00 56 1014.2
20200404070023 47 223 0.0 0.0 0.00 0.00 0.00 55 1014.3
20200404064606 48 223 0.0 0.0 0.00 0.00 0.00 54 1014.4
20200404063057 49 223 0.0 0.0 0.00 0.00 0.00 51 1014.5
20200404061530 49 223 0.0 0.0 0.00 0.00 0.00 49 1014.4
20200404060237 49 223 0.0 0.0 0.00 0.00 0.00 51 1014.5
20200404054507 50 223 0.0 0.0 0.00 0.00 0.00 48 1014.6
20200404053025 50 223 0.0 0.0 0.00 0.00 0.00 46 1014.5
20200404051656 51 223 0.0 0.0 0.00 0.00 0.00 43 1014.5
20200404050032 51 223 0.0 0.0 0.00 0.00 0.00 48 1014.5
20200404044526 52 223 0.0 0.0 0.00 0.00 0.00 41 1014.1
20200404043057 52 223 0.0 0.0 0.00 0.00 0.00 41 1014.2
20200404041700 53 223 0.0 0.0 0.00 0.00 0.00 40 1014.0
20200404041545 53 223 0.0 0.0 0.00 0.00 0.00 40 1014.0
20200404040014 54 223 0.0 0.0 0.00 0.00 0.00 39 1014.0
20200404034615 54 223 0.0 0.0 0.00 0.00 0.00 42 1014.0
20200404033114 55 223 0.0 0.0 0.00 0.00 0.00 46 1013.9
20200404031534 54 223 0.0 0.0 0.00 0.00 0.00 43 1013.8
20200404030054 54 223 0.0 0.0 0.00 0.00 0.00 46 1013.4
20200404024627 55 223 0.0 0.0 0.00 0.00 0.00 45 1013.4
20200404024505 55 223 0.0 0.0 0.00 0.00 0.00 45 1013.4
20200404023037 55 223 0.0 0.0 0.00 0.00 0.00 42 1013.2
20200404021545 55 223 0.0 0.0 0.00 0.00 0.00 47 1012.9
20200404020035 55 223 0.0 0.0 0.00 0.00 0.00 45 1012.8
20200404014615 56 223 0.0 0.0 0.00 0.00 0.00 39 1012.9
20200404013131 57 223 0.0 0.0 0.00 0.00 0.00 33 1012.7
20200404013002 57 223 0.0 0.0 0.00 0.00 0.00 33 1012.7
20200404011522 58 223 0.0 0.0 0.00 0.00 0.00 32 1012.5
20200404010141 58 223 0.0 0.0 0.00 0.00 0.00 34 1012.1
20200404004656 59 223 0.0 0.0 0.00 0.00 0.00 35 1011.8
20200404003027 60 223 0.0 0.0 0.00 0.00 0.00 36 1011.8
20200404001542 62 223 0.0 0.0 0.00 0.00 0.00 30 1011.6
20200404000154 62 205 0.0 2.0 0.00 0.00 0.00 27 1011.5
20200403234549 64 205 0.0 0.0 0.00 0.00 0.00 28 1011.2
20200403233204 64 196 0.0 1.0 0.00 0.00 0.00 26 1011.0
20200403231505 66 279 0.0 0.0 0.00 0.00 0.00 25 1011.1
20200403230032 66 323 0.0 0.0 0.00 0.00 0.00 27 1011.0